"Pseudo-MPEC" for P10NTi8

Created 2019 May 18 15:07:19 UT using Find_Orb

Click here for an explanation of pseudo-MPECs

 
 Astrometry: 
     P10NTi8  C2019 05 11WK%G'gu8%)vO%[Astrometry=YixU(S0T'(\/KGyPXKURvUjV^@+F51
     P10NTi8  C2019 05 11!wk,MS='4ECJ?C!QHredacted;01-gDc%HC@JteJclick'lWxNlCF51
     P10NTi8  C2019 05 11F5me2HpZhereYfor(ZfoX)NwexplanationQrqUl6%M\\K0NHVpuF51

Station data:
(F51) Pan-STARRS 1, Haleakala  (N20.707235 W156.255910)  US/Hawaii.
   Observers N. Primak, A. Schultz, S. Watters, J. Thiel, T. Goggia. Measurer
   PS1 Science Consortium. 1.8-m Ritchey-Chrétien + CCD.

Orbital elements:  P10NTi8
   Perihelion 2019 May 7.140316 +/- 38 TT =  3:22:03 (JD 2458610.640316)
Epoch 2019 May 12.0 TT = JDT 2458615.5   Earth MOID: 0.2834   Ju: 0.5180
M   0.90078003 +/- 17               (J2000 ecliptic)          AutoNEOCP
n   0.18535774 +/- 0.225            Peri.   50.34734 +/- 100
a   3.04646050 +/- 2.46             Node   176.61371 +/- 60
e   0.5895433 +/- 0.257             Incl.   10.42222 +/- 6
P   5.32                   H 23.3   G  0.15   U 11.7  SR
q 1.25044002 +/- 0.183    Q 4.84248098 +/- 49.7
From 3 observations 2019 May 11 (35.5 min); mean residual 0".05
Residuals in arcseconds: 
190511 F51  .03-  .04-    190511 F51  .07+  .08+    190511 F51  .04-  .04-    

Ephemerides (geocentric):
Date (UTC) HH   RA              Dec         delta   r     elong  mag " sig PA
---- -- -- --  -------------   -----------  ------ ------ -----  --- ---- ---
2019 05 18 15  16 08 52.738   +20 31 18.92  .30407 1.2578 139.3 22.6  45d   9
2019 05 18 16  16 08 57.542   +20 31 28.53  .30415 1.2578 139.3 22.6  46d   9
2019 05 18 17  16 09 02.343   +20 31 38.03  .30423 1.2579 139.3 22.6  46d   9
2019 05 18 18  16 09 07.139   +20 31 47.41  .30430 1.2579 139.3 22.6  46d   9
2019 05 18 19  16 09 11.933   +20 31 56.68  .30438 1.2580 139.3 22.6  46d   9
2019 05 18 20  16 09 16.722   +20 32 05.83  .30446 1.2580 139.3 22.6  46d   9
2019 05 18 21  16 09 21.508   +20 32 14.86  .30454 1.2581 139.3 22.6  46d   9
2019 05 18 22  16 09 26.289   +20 32 23.77  .30462 1.2581 139.3 22.6  46d   9
2019 05 18 23  16 09 31.068   +20 32 32.57  .30470 1.2582 139.3 22.6  46d   9
2019 05 19 00  16 09 35.842   +20 32 41.26  .30478 1.2582 139.2 22.6  46d   9
2019 05 19 01  16 09 40.613   +20 32 49.82  .30486 1.2583 139.2 22.6  46d   9
2019 05 19 02  16 09 45.380   +20 32 58.27  .30494 1.2584 139.2 22.6  47d   9
2019 05 19 03  16 09 50.144   +20 33 06.61  .30502 1.2584 139.2 22.6  47d   9
2019 05 19 04  16 09 54.904   +20 33 14.82  .30510 1.2585 139.2 22.6  47d   9
2019 05 19 05  16 09 59.660   +20 33 22.93  .30518 1.2585 139.2 22.6  47d   9
2019 05 19 06  16 10 04.412   +20 33 30.91  .30526 1.2586 139.2 22.6  47d   9
2019 05 19 07  16 10 09.161   +20 33 38.78  .30534 1.2586 139.2 22.6  47d   9
2019 05 19 08  16 10 13.906   +20 33 46.53  .30542 1.2587 139.2 22.6  47d   9
2019 05 19 09  16 10 18.647   +20 33 54.17  .30550 1.2587 139.2 22.6  47d   9
2019 05 19 10  16 10 23.385   +20 34 01.70  .30558 1.2588 139.2 22.6  47d   9
2019 05 19 11  16 10 28.119   +20 34 09.10  .30566 1.2589 139.2 22.6  48d   9
2019 05 19 12  16 10 32.849   +20 34 16.39  .30574 1.2589 139.2 22.6  48d   9
2019 05 19 13  16 10 37.575   +20 34 23.57  .30582 1.2590 139.1 22.6  48d   9
2019 05 19 14  16 10 42.298   +20 34 30.63  .30590 1.2590 139.1 22.6  48d   9
2019 05 19 15  16 10 47.017   +20 34 37.57  .30598 1.2591 139.1 22.6  48d   9
2019 05 19 16  16 10 51.733   +20 34 44.40  .30606 1.2591 139.1 22.6  48d  10
2019 05 19 17  16 10 56.444   +20 34 51.12  .30615 1.2592 139.1 22.6  48d  10
2019 05 19 18  16 11 01.152   +20 34 57.71  .30623 1.2593 139.1 22.6  49d  10
2019 05 19 19  16 11 05.857   +20 35 04.20  .30631 1.2593 139.1 22.6  49d  10
2019 05 19 20  16 11 10.557   +20 35 10.57  .30639 1.2594 139.1 22.6  49d  10
2019 05 19 21  16 11 15.254   +20 35 16.82  .30647 1.2594 139.1 22.6  49d  10
2019 05 19 22  16 11 19.947   +20 35 22.96  .30656 1.2595 139.1 22.6  49d  10
2019 05 19 23  16 11 24.637   +20 35 28.98  .30664 1.2596 139.1 22.6  49d  10
2019 05 20 00  16 11 29.323   +20 35 34.89  .30672 1.2596 139.1 22.6  49d  10
2019 05 20 01  16 11 34.005   +20 35 40.68  .30680 1.2597 139.1 22.6  49d  10
2019 05 20 02  16 11 38.683   +20 35 46.36  .30689 1.2597 139.1 22.6  49d  10
2019 05 20 03  16 11 43.358   +20 35 51.93  .30697 1.2598 139.1 22.6  49d  10
2019 05 20 04  16 11 48.029   +20 35 57.38  .30705 1.2598 139.0 22.6  50d  10
2019 05 20 05  16 11 52.696   +20 36 02.71  .30714 1.2599 139.0 22.6  50d  10
2019 05 20 06  16 11 57.359   +20 36 07.93  .30722 1.2600 139.0 22.6  50d  10
2019 05 20 07  16 12 02.019   +20 36 13.04  .30730 1.2600 139.0 22.6  50d  10
2019 05 20 08  16 12 06.675   +20 36 18.03  .30739 1.2601 139.0 22.6  50d  10
2019 05 20 09  16 12 11.328   +20 36 22.90  .30747 1.2602 139.0 22.6  50d  10
2019 05 20 10  16 12 15.976   +20 36 27.67  .30755 1.2602 139.0 22.6  50d  10
2019 05 20 11  16 12 20.621   +20 36 32.32  .30764 1.2603 139.0 22.6  50d  10
2019 05 20 12  16 12 25.263   +20 36 36.85  .30772 1.2603 139.0 22.6  50d  10
2019 05 20 13  16 12 29.900   +20 36 41.27  .30781 1.2604 139.0 22.6  50d  10
2019 05 20 14  16 12 34.534   +20 36 45.58  .30789 1.2605 139.0 22.6  50d  10